Location: Ab? ar R?sh Ba?r?
(24.1861°N, 32.8847°E)
Time: 10:51:33
(UTC+00:00)

Landsat 5 - Pass Details

Date: 24 October 2021
Orbit: 528 x 652 km, 98.2° (Epoch: 03 December)

Event Time Altitude Azimuth Distance (km) Brightness Sun altitude
Rises 15:45:03 0° 12° (NNE) 2,951 6.8 -7.7°
Reaches altitude 10° 15:47:16 10° 12° (NNE) 2,048 6.0 -8.2°
Maximum altitude 15:51:45 88° 93° (E) 656 3.7 -9.2°
Drops below altitude 10° 15:56:15 10° 192° (SSW) 2,047 6.5 -10.2°
Sets 15:58:27 0° 193° (SSW) 2,949 7.3 -10.7°
